Weather History for Warrenton, VA

Change the Weather History Date:

Sunday, November 6, 2011

  Actual Average (KHEF) Record (KHEF)
Temperature  
Mean Temperature 45 °F -  
Max Temperature 62 °F 57 °F 78 °F (2005)
Min Temperature 28 °F 34 °F 21 °F (1998)
Degree Days  
Heating Degree Days 20    
Moisture  
Dew Point 38 °F    
Average Humidity 86    
Maximum Humidity 100    
Minimum Humidity 55    
Precipitation  
Precipitation 0.00 in - - ()
Sea Level Pressure  
Sea Level Pressure 30.47 in    
Wind  
Wind Speed 1 mph (South)    
Max Wind Speed 7 mph    
Max Gust Speed -    
Visibility 10 miles    
Events      
Averages and records for this station are not official NWS values.
T = Trace of Precipitation, MM = Missing Value Source: NWS Daily Summary

Daily Weather History Graph

Daily Weather History Graph

Search for Another Location

Airport:

Trip Planner

Search our weather history database for the weather conditions in past years. The results will help you decide how hot, cold, wet, or windy it might be!

Date:

Astronomy

Nov. 06, 2011 Rise Set
Actual Time 6:42 AM EST 5:05 PM EST
Civil Twilight 6:14 AM EST 5:33 PM EST
Nautical Twilight 5:43 AM EST 6:05 PM EST
Astronomical Twilight 5:12 AM EST 6:36 PM EST
Moon 2:47 PM EST (11/6) 2:49 AM EST (11/6)
Length of Visible Light 11h 18m
Length of Day
10h 23m
Waxing Gibbous, 85% of the Moon is Illuminated
Nov 6
Waxing Gibbous
Nov 10
Full
Nov 18
Last Quarter
Nov 25
New
Dec 2
First Quarter

Hourly Weather History & Observations

Time (EST) Temp. Windchill Dew Point Humidity Pressure Visibility Wind Dir Wind Speed Gust Speed Precip Events Conditions
12:15 AM 32.0 °F - 32.0 °F 100% 30.48 in 10.0 mi Calm Calm - N/A   Clear
12:35 AM 30.2 °F - 30.2 °F 100% 30.48 in 10.0 mi Calm Calm - N/A   Clear
12:55 AM 30.2 °F - 30.2 °F 100% 30.49 in 10.0 mi Calm Calm - N/A   Clear
1:35 AM 30.2 °F - 30.2 °F 100% 30.48 in 10.0 mi Calm Calm - N/A   Clear
1:55 AM 30.2 °F - 30.2 °F 100% 30.48 in 10.0 mi Calm Calm - N/A   Clear
1:15 AM 30.2 °F - 30.2 °F 100% 30.48 in 10.0 mi Calm Calm - N/A   Clear
1:35 AM 30.2 °F - 30.2 °F 100% 30.48 in 10.0 mi Calm Calm - N/A   Clear
1:55 AM 30.2 °F - 30.2 °F 100% 30.48 in 10.0 mi Calm Calm - N/A   Clear
2:15 AM 30.2 °F - 30.2 °F 100% 30.48 in 10.0 mi Calm Calm - N/A   Clear
2:35 AM 28.4 °F - 28.4 °F 100% 30.48 in 10.0 mi Calm Calm - N/A   Clear
2:55 AM 30.2 °F - 30.2 °F 100% 30.48 in 10.0 mi Calm Calm - N/A   Clear
3:15 AM 28.4 °F - 28.4 °F 100% 30.48 in 10.0 mi Calm Calm - N/A   Clear
3:35 AM 28.4 °F - 28.4 °F 100% 30.49 in 10.0 mi Calm Calm - N/A   Clear
3:55 AM 28.4 °F - 28.4 °F 100% 30.49 in 7.0 mi Calm Calm - N/A   Clear
4:15 AM 28.4 °F - 28.4 °F 100% 30.49 in 10.0 mi Calm Calm - N/A   Clear
4:35 AM 28.4 °F - 28.4 °F 100% 30.50 in 10.0 mi Calm Calm - N/A   Clear
4:55 AM 28.4 °F - 28.4 °F 100% 30.50 in 10.0 mi Calm Calm - N/A   Clear
5:15 AM 28.4 °F - 28.4 °F 100% 30.50 in 7.0 mi Calm Calm - N/A   Clear
5:55 AM 28.4 °F - 28.4 °F 100% 30.50 in 10.0 mi Calm Calm - N/A   Clear
6:15 AM 28.4 °F - 28.4 °F 100% 30.50 in 10.0 mi Calm Calm - N/A   Scattered Clouds
6:35 AM 30.2 °F - 30.2 °F 100% 30.50 in 10.0 mi Calm Calm - N/A   Mostly Cloudy
6:55 AM 30.2 °F - 30.2 °F 100% 30.51 in 7.0 mi Calm Calm - N/A   Overcast
7:15 AM 30.2 °F - 30.2 °F 100% 30.51 in 10.0 mi Calm Calm - N/A   Overcast
7:35 AM 32.0 °F - 32.0 °F 100% 30.52 in 10.0 mi Calm Calm - N/A   Mostly Cloudy
7:55 AM 33.8 °F - 33.8 °F 100% 30.53 in 10.0 mi Calm Calm - N/A   Mostly Cloudy
8:15 AM 33.8 °F - 33.8 °F 100% 30.53 in 10.0 mi Calm Calm - N/A   Overcast
8:35 AM 37.4 °F - 37.4 °F 100% 30.53 in 10.0 mi Calm Calm - N/A   Scattered Clouds
8:55 AM 41.0 °F - 39.2 °F 93% 30.53 in 10.0 mi Calm Calm - N/A   Clear
9:15 AM 44.6 °F - 41.0 °F 87% 30.53 in 10.0 mi Calm Calm - N/A   Clear
9:35 AM 46.4 °F - 42.8 °F 87% 30.53 in 10.0 mi Calm Calm - N/A   Clear
9:55 AM 48.2 °F - 41.0 °F 76% 30.53 in 10.0 mi Calm Calm - N/A   Clear
10:15 AM 51.8 °F - 42.8 °F 71% 30.53 in 10.0 mi Calm Calm - N/A   Clear
10:35 AM 53.6 °F - 44.6 °F 72% 30.52 in 10.0 mi Calm Calm - N/A   Clear
11:15 AM 55.4 °F - 44.6 °F 67% 30.51 in 10.0 mi Calm Calm - N/A   Clear
11:35 AM 57.2 °F - 44.6 °F 63% 30.49 in 10.0 mi ESE 3.5 mph - N/A   Clear
11:55 AM 57.2 °F - 46.4 °F 67% 30.48 in 10.0 mi East 4.6 mph - N/A   Clear
12:15 PM 59.0 °F - 46.4 °F 63% 30.46 in 10.0 mi South 6.9 mph - N/A   Clear
12:55 PM 60.8 °F - 46.4 °F 59% 30.44 in 10.0 mi SSE 5.8 mph - N/A   Clear
1:15 PM 60.8 °F - 46.4 °F 59% 30.43 in 10.0 mi South 6.9 mph - N/A   Clear
1:35 PM 60.8 °F - 46.4 °F 59% 30.43 in 10.0 mi SW 3.5 mph - N/A   Clear
2:15 PM 60.8 °F - 46.4 °F 59% 30.41 in 10.0 mi SSE 4.6 mph - N/A   Clear
2:35 PM 60.8 °F - 48.2 °F 63% 30.41 in 10.0 mi SSW 5.8 mph - N/A   Clear
2:55 PM 62.6 °F - 46.4 °F 55% 30.40 in 10.0 mi SSE 3.5 mph - N/A   Clear
3:15 PM 60.8 °F - 48.2 °F 63% 30.40 in 10.0 mi WSW 4.6 mph - N/A   Clear
3:35 PM 60.8 °F - 48.2 °F 63% 30.39 in 10.0 mi SW 4.6 mph - N/A   Clear
3:55 PM 60.8 °F - 48.2 °F 63% 30.39 in 10.0 mi SSW 5.8 mph - N/A   Clear
4:15 PM 59.0 °F - 46.4 °F 63% 30.39 in 10.0 mi SSW 4.6 mph - N/A   Clear
4:35 PM 59.0 °F - 46.4 °F 63% 30.39 in 10.0 mi Calm Calm - N/A   Clear
4:55 PM 57.2 °F - 46.4 °F 67% 30.38 in 10.0 mi Calm Calm - N/A   Clear
5:15 PM 51.8 °F - 44.6 °F 76% 30.38 in 10.0 mi Calm Calm - N/A   Clear
5:35 PM 48.2 °F - 44.6 °F 87% 30.39 in 10.0 mi Calm Calm - N/A   Clear
5:55 PM 46.4 °F - 44.6 °F 93% 30.39 in 10.0 mi Calm Calm - N/A   Clear
6:15 PM 46.4 °F - 44.6 °F 93% 30.39 in 10.0 mi Calm Calm - N/A   Clear
6:35 PM 44.6 °F - 42.8 °F 93% 30.39 in 10.0 mi Calm Calm - N/A   Clear
6:55 PM 44.6 °F - 42.8 °F 93% 30.40 in 10.0 mi Calm Calm - N/A   Clear
7:15 PM 44.6 °F - 42.8 °F 93% 30.39 in 10.0 mi Calm Calm - N/A   Clear
7:35 PM 44.6 °F 42.2 °F 44.6 °F 100% 30.39 in 10.0 mi SE 4.6 mph - N/A   Clear
7:55 PM 42.8 °F 40.1 °F 42.8 °F 100% 30.39 in 10.0 mi SE 4.6 mph - N/A   Clear
7:59 PM 42.8 °F 40.1 °F 42.8 °F 100% 30.39 in 10.0 mi SE 4.6 mph - N/A   Clear
8:15 PM 42.8 °F 40.1 °F 42.8 °F 100% 30.39 in 10.0 mi SE 4.6 mph - N/A   Clear
8:35 PM 39.2 °F - 39.2 °F 100% 30.39 in 10.0 mi Calm Calm - N/A   Clear
8:55 PM 37.4 °F - 37.4 °F 100% 30.40 in 10.0 mi Calm Calm - N/A   Clear
9:15 PM 41.0 °F - 41.0 °F 100% 30.40 in 10.0 mi Calm Calm - N/A   Clear
9:35 PM 37.4 °F - 37.4 °F 100% 30.40 in 5.0 mi Calm Calm - N/A   Clear
9:55 PM 35.6 °F - 35.6 °F 100% 30.40 in 7.0 mi Calm Calm - N/A   Clear
10:15 PM 37.4 °F - 37.4 °F 100% 30.40 in 3.0 mi Calm Calm - N/A   Clear
10:35 PM 35.6 °F - 35.6 °F 100% 30.39 in 0.5 mi Calm Calm - N/A Fog Fog
10:38 PM 37.4 °F - 37.4 °F 100% 30.39 in 0.5 mi Calm Calm - N/A Fog Fog
10:55 PM 35.6 °F - 35.6 °F 100% 30.39 in 2.0 mi Calm Calm - N/A   Clear